ORBCOMM FM117 [+] (41188 NORAD) Tracking and Keplerian Element Data

This shows tracking and keplerian element data for the satellite.

Feedback or suggestion? Click here.




ElementValue
Catalog41188
NameORBCOMM FM117 [+]
Epoch Orbit20944
Epoch Day318.50635793
Epoch Year2019
RAAN349.8787
Inclination47.0022
Eccentricity0.000276
Argument of Perigee327.7954
Mean Anonmoly32.2761
Mean Motion14.54772212
Decay Rate-8E-08
L11 41188U 15081K 19318.50635793 -.00000008 00000-0 36526-4 0 9992
L22 41188 47.0022 349.8787 0002760 327.7954 32.2761 14.54772212209442

Live tracking and technical data element details for ORBCOMM FM117 [+] (NORAD 41188). ORBCOMM FM117 [+] can be tracked NOW for your location showing map with azimuth and elevation plus other details from your city location.

Track the satellite on the map from your city or location and see movement details for azimuth, elevation, latitude, longitude, range, height, and movement on the map or in text.







IsCatalogInMostPopularTable: catalog: 41188, numindb: 336
Update: records affected: 1



GetName: 41188 ORBCOMM FM117 [+]

Hit Count: updated at: Sun, 17 Nov 2019 14:44:03 GMT